| time (UTC) | temp C | wind direction | speed KPH | gust KPH | rain 1hr cm | rain 24hr cm | rain mn cm | humidity % | barometer mb |
| 20260905060804 | 9 | 351 | 3.2 | 8.0 | 0.00 | 0.00 | 0.00 | 84 | 1016.7 |
| 20260905060305 | 9 | 11 | 3.2 | 8.0 | 0.00 | 0.00 | 0.00 | 83 | 1016.7 |
| 20260905050805 | 11 | 273 | 3.2 | 4.8 | 0.00 | 0.00 | 0.00 | 76 | 1016.6 |
| 20260905050304 | 11 | 274 | 1.6 | 4.8 | 0.00 | 0.00 | 0.00 | 76 | 1016.6 |
| 20260905040804 | 15 | 43 | 0.0 | 1.6 | 0.00 | 0.00 | 0.00 | 61 | 1016.3 |
| 20260905040306 | 15 | 35 | 0.0 | 3.2 | 0.00 | 0.00 | 0.00 | 63 | 1016.3 |
| 20260905030805 | 18 | 57 | 1.6 | 3.2 | 0.00 | 0.00 | 0.00 | 51 | 1016.0 |
| 20260905030304 | 18 | 46 | 1.6 | 3.2 | 0.00 | 0.00 | 0.00 | 50 | 1016.0 |
| 20260905020805 | 21 | 60 | 1.6 | 3.2 | 0.00 | 0.00 | 0.00 | 44 | 1015.9 |
| 20260905000805 | 22 | 38 | 3.2 | 4.8 | 0.00 | 0.00 | 0.00 | 40 | 1016.5 |
| 20260905000304 | 22 | 6 | 3.2 | 8.0 | 0.00 | 0.00 | 0.00 | 40 | 1016.6 |
| 20260904230805 | 20 | 51 | 1.6 | 4.8 | 0.00 | 0.00 | 0.00 | 44 | 1017.2 |
| 20260904230304 | 20 | 53 | 3.2 | 4.8 | 0.00 | 0.00 | 0.00 | 44 | 1017.3 |
| 20260904220805 | 18 | 61 | 1.6 | 3.2 | 0.00 | 0.00 | 0.00 | 43 | 1017.7 |
| 20260904220306 | 18 | 56 | 1.6 | 9.7 | 0.00 | 0.00 | 0.00 | 44 | 1017.8 |
| 20260904200805 | 15 | 88 | 1.6 | 3.2 | 0.00 | 0.00 | 0.00 | 55 | 1019.0 |
| 20260904190804 | 13 | 339 | 0.0 | 4.8 | 0.00 | 0.00 | 0.00 | 58 | 1019.5 |
| 20260904190305 | 13 | 45 | 1.6 | 8.0 | 0.00 | 0.00 | 0.00 | 57 | 1019.5 |
| 20260904180804 | 9 | 65 | 3.2 | 9.7 | 0.00 | 0.00 | 0.00 | 72 | 1019.9 |
| 20260904180305 | 8 | 276 | 8.0 | 12.9 | 0.00 | 0.00 | 0.00 | 75 | 1020.0 |
| 20260904170804 | 6 | 320 | 3.2 | 8.0 | 0.00 | 0.00 | 0.00 | 82 | 1020.4 |
| 20260904170305 | 6 | 281 | 4.8 | 12.9 | 0.00 | 0.00 | 0.00 | 84 | 1020.5 |
| 20260904160804 | 3 | 279 | 4.8 | 4.8 | 0.00 | 0.00 | 0.00 | 98 | 1020.5 |
| 20260904160304 | 3 | 275 | 4.8 | 9.7 | 0.00 | 0.00 | 0.00 | 99 | 1020.5 |
| 20260904150804 | 1 | 264 | 4.8 | 8.0 | 0.00 | 0.00 | 0.00 | 99 | 1020.6 |
| 20260904150304 | 1 | 210 | 4.8 | 9.7 | 0.00 | 0.00 | 0.00 | 99 | 1020.6 |
| 20260904140804 | 1 | 217 | 4.8 | 8.0 | 0.00 | 0.00 | 0.00 | 98 | 1020.8 |
| 20260904140305 | 1 | 278 | 3.2 | 9.7 | 0.00 | 0.00 | 0.00 | 98 | 1020.8 |
| 20260904130305 | 2 | 279 | 8.0 | 8.0 | 0.00 | 0.00 | 0.00 | 98 | 1020.9 |
| 20260904120805 | 1 | 127 | 3.2 | 8.0 | 0.00 | 0.00 | 0.00 | 98 | 1020.8 |
| 20260904120306 | 1 | 257 | 4.8 | 8.0 | 0.00 | 0.00 | 0.00 | 98 | 1020.7 |
| 20260904110805 | 1 | 276 | 4.8 | 8.0 | 0.00 | 0.00 | 0.00 | 98 | 1021.0 |
| 20260904110304 | 1 | 133 | 3.2 | 8.0 | 0.00 | 0.00 | 0.00 | 98 | 1021.1 |
| 20260904100804 | 1 | 275 | 4.8 | 8.0 | 0.00 | 0.00 | 0.00 | 98 | 1021.2 |
| 20260904100305 | 1 | 251 | 4.8 | 9.7 | 0.00 | 0.00 | 0.00 | 98 | 1021.3 |
| 20260904090805 | 1 | 282 | 3.2 | 8.0 | 0.00 | 0.00 | 0.00 | 97 | 1021.4 |
| 20260904090304 | 2 | 269 | 6.4 | 9.7 | 0.00 | 0.00 | 0.00 | 97 | 1021.3 |
| 20260904080805 | 2 | 281 | 8.0 | 8.0 | 0.00 | 0.00 | 0.00 | 96 | 1021.0 |
| 20260904070811 | 3 | 278 | 4.8 | 4.8 | 0.00 | 0.00 | 0.00 | 94 | 1021.0 |
| 20260904070305 | 3 | 280 | 4.8 | 8.0 | 0.00 | 0.00 | 0.00 | 94 | 1021.1 |